Year,Month,Day,Hour,Minute,Value (Times are PST for temperature in C)
2020,04,17,00,34,10.70
2020,04,17,00,35,10.70
2020,04,17,00,36,10.60
2020,04,17,00,37,10.60
2020,04,17,00,38,10.50
2020,04,17,00,39,10.50
2020,04,17,00,40,10.40
2020,04,17,00,41,10.40
2020,04,17,00,42,10.40
2020,04,17,00,43,10.40
2020,04,17,00,44,10.30
2020,04,17,00,45,10.30
2020,04,17,00,46,10.20
2020,04,17,00,47,10.20
2020,04,17,00,48,10.20
2020,04,17,00,49,10.10
2020,04,17,00,50,10.10
2020,04,17,00,51,10.10
2020,04,17,00,52,10.10
2020,04,17,00,53,10.00
2020,04,17,00,54,10.00
2020,04,17,00,55,10.00
2020,04,17,00,56,10.00
2020,04,17,00,57,9.90
2020,04,17,00,58,9.90
2020,04,17,00,59,9.90
2020,04,17,01,00,9.90
2020,04,17,01,01,9.90
2020,04,17,01,02,9.80
2020,04,17,01,03,9.80
2020,04,17,01,04,9.80
2020,04,17,01,05,9.80
2020,04,17,01,06,9.70
2020,04,17,01,07,9.70
2020,04,17,01,08,9.70
2020,04,17,01,09,9.70
2020,04,17,01,10,9.70
2020,04,17,01,11,9.70
2020,04,17,01,12,9.70
2020,04,17,01,13,9.70
2020,04,17,01,14,9.70
2020,04,17,01,15,9.60
2020,04,17,01,16,9.60
2020,04,17,01,17,9.60
2020,04,17,01,18,9.60
2020,04,17,01,19,9.60
2020,04,17,01,20,9.50
2020,04,17,01,21,9.50
2020,04,17,01,22,9.50
2020,04,17,01,23,9.50
2020,04,17,01,24,9.50
2020,04,17,01,25,9.50
2020,04,17,01,26,9.50
2020,04,17,01,27,9.40
2020,04,17,01,28,9.50
2020,04,17,01,29,9.40
2020,04,17,01,30,9.40
2020,04,17,01,31,9.40
2020,04,17,01,32,9.40
2020,04,17,01,33,9.50
2020,04,17,01,34,9.50
2020,04,17,01,35,9.50
2020,04,17,01,36,9.60
2020,04,17,01,37,9.70
2020,04,17,01,38,9.70
2020,04,17,01,39,9.80
2020,04,17,01,40,9.90
2020,04,17,01,41,10.00
2020,04,17,01,42,10.00
2020,04,17,01,43,10.10
2020,04,17,01,44,10.10
2020,04,17,01,45,10.10
2020,04,17,01,46,10.10
2020,04,17,01,47,10.10
2020,04,17,01,48,10.10
2020,04,17,01,49,10.10
2020,04,17,01,50,10.10
2020,04,17,01,51,10.10
2020,04,17,01,52,10.10
2020,04,17,01,53,10.10
2020,04,17,01,54,10.10
2020,04,17,01,55,10.10
2020,04,17,01,56,10.10
2020,04,17,01,57,10.00
2020,04,17,01,58,10.00
2020,04,17,01,59,9.90
2020,04,17,02,00,9.90
2020,04,17,02,01,9.80
2020,04,17,02,02,9.80
2020,04,17,02,03,9.80
2020,04,17,02,04,9.70
2020,04,17,02,05,9.70
2020,04,17,02,06,9.60
2020,04,17,02,07,9.60
2020,04,17,02,08,9.50
2020,04,17,02,09,9.50
2020,04,17,02,10,9.50
2020,04,17,02,11,9.40
2020,04,17,02,12,9.40
2020,04,17,02,13,9.40
2020,04,17,02,14,9.40
2020,04,17,02,15,9.30
2020,04,17,02,16,9.30
2020,04,17,02,17,9.30
2020,04,17,02,18,9.30
2020,04,17,02,19,9.30
2020,04,17,02,20,9.20
2020,04,17,02,21,9.20
2020,04,17,02,22,9.20
2020,04,17,02,23,9.20
2020,04,17,02,24,9.10
2020,04,17,02,25,9.10
2020,04,17,02,26,9.10
2020,04,17,02,27,9.10
2020,04,17,02,28,9.00
2020,04,17,02,29,8.90
2020,04,17,02,30,8.90
2020,04,17,02,31,8.80
2020,04,17,02,32,8.80
2020,04,17,02,33,8.70
2020,04,17,02,34,8.60
2020,04,17,02,35,8.60
2020,04,17,02,36,8.60
2020,04,17,02,37,8.50
2020,04,17,02,38,8.50
2020,04,17,02,39,8.50
2020,04,17,02,40,8.40
2020,04,17,02,41,8.40
2020,04,17,02,42,8.40
2020,04,17,02,43,8.40
2020,04,17,02,44,8.30
2020,04,17,02,45,8.30
2020,04,17,02,46,8.30
2020,04,17,02,47,8.30
2020,04,17,02,48,8.20
2020,04,17,02,49,8.20
2020,04,17,02,50,8.20
2020,04,17,02,51,8.20
2020,04,17,02,52,8.10
2020,04,17,02,53,8.10
2020,04,17,02,54,8.10
2020,04,17,02,55,8.00
2020,04,17,02,56,8.00
2020,04,17,02,57,8.00
2020,04,17,02,58,8.00
2020,04,17,02,59,8.00
2020,04,17,03,00,7.90
2020,04,17,03,01,7.90
2020,04,17,03,02,7.90
2020,04,17,03,03,7.90
2020,04,17,03,04,7.80
2020,04,17,03,05,7.80
2020,04,17,03,06,7.80
2020,04,17,03,07,7.80
2020,04,17,03,08,7.80
2020,04,17,03,09,7.80
2020,04,17,03,10,7.70
2020,04,17,03,11,7.70
2020,04,17,03,12,7.70
2020,04,17,03,13,7.70
2020,04,17,03,14,7.70
2020,04,17,03,15,7.70
2020,04,17,03,16,7.70
2020,04,17,03,17,7.70
2020,04,17,03,18,7.70
2020,04,17,03,19,7.70
2020,04,17,03,20,7.70
2020,04,17,03,21,7.70
2020,04,17,03,22,7.60
2020,04,17,03,23,7.60
2020,04,17,03,24,7.60
2020,04,17,03,25,7.60
2020,04,17,03,26,7.50
2020,04,17,03,27,7.50
2020,04,17,03,28,7.50
2020,04,17,03,29,7.50
2020,04,17,03,30,7.50
2020,04,17,03,31,7.50
2020,04,17,03,32,7.50
2020,04,17,03,33,7.50
2020,04,17,03,34,7.60
2020,04,17,03,35,7.60
2020,04,17,03,36,7.60
2020,04,17,03,37,7.50
2020,04,17,03,38,7.50
2020,04,17,03,39,7.40
2020,04,17,03,40,7.40
2020,04,17,03,41,7.30
2020,04,17,03,42,7.30
2020,04,17,03,43,7.30
2020,04,17,03,44,7.20
2020,04,17,03,45,7.20
2020,04,17,03,46,7.20
2020,04,17,03,47,7.20
2020,04,17,03,48,7.20
2020,04,17,03,49,7.20
2020,04,17,03,50,7.20
2020,04,17,03,51,7.20
2020,04,17,03,52,7.20
2020,04,17,03,53,7.20
2020,04,17,03,54,7.20
2020,04,17,03,55,7.20
2020,04,17,03,56,7.20
2020,04,17,03,57,7.20
2020,04,17,03,58,7.20
2020,04,17,03,59,7.20
2020,04,17,04,00,7.20
2020,04,17,04,01,7.20
2020,04,17,04,02,7.20
2020,04,17,04,03,7.10
2020,04,17,04,04,7.10
2020,04,17,04,05,7.10
2020,04,17,04,06,7.10
2020,04,17,04,07,7.10
2020,04,17,04,08,7.10
2020,04,17,04,09,7.10
2020,04,17,04,10,7.00
2020,04,17,04,11,7.00
2020,04,17,04,12,7.00
2020,04,17,04,13,6.90
2020,04,17,04,14,6.90
2020,04,17,04,15,6.90
2020,04,17,04,16,6.90
2020,04,17,04,17,7.00
2020,04,17,04,18,7.00
2020,04,17,04,19,7.00
2020,04,17,04,20,7.00
2020,04,17,04,21,7.00
2020,04,17,04,22,7.00
2020,04,17,04,23,7.00
2020,04,17,04,24,7.00
2020,04,17,04,25,6.90
2020,04,17,04,26,6.90
2020,04,17,04,27,6.90
2020,04,17,04,28,6.90
2020,04,17,04,29,6.90
2020,04,17,04,30,6.90
2020,04,17,04,31,6.90
2020,04,17,04,32,6.80
2020,04,17,04,33,6.80
2020,04,17,04,34,6.80
2020,04,17,04,35,6.80
2020,04,17,04,36,6.80
2020,04,17,04,37,6.80
2020,04,17,04,38,6.80
2020,04,17,04,39,6.80
2020,04,17,04,40,6.80
2020,04,17,04,41,6.80
2020,04,17,04,42,6.80
2020,04,17,04,43,6.80
2020,04,17,04,44,6.80
2020,04,17,04,45,6.80
2020,04,17,04,46,6.80
2020,04,17,04,47,6.80
2020,04,17,04,48,6.80
2020,04,17,04,49,6.80
2020,04,17,04,50,6.80
2020,04,17,04,51,6.80
2020,04,17,04,52,6.80
2020,04,17,04,53,6.80
2020,04,17,04,54,6.80
2020,04,17,04,55,6.80
2020,04,17,04,56,6.80
2020,04,17,04,57,6.80
2020,04,17,04,58,6.80
2020,04,17,04,59,6.80
2020,04,17,05,00,6.80
2020,04,17,05,01,6.80
2020,04,17,05,02,6.80
2020,04,17,05,03,6.70
2020,04,17,05,04,6.70
2020,04,17,05,05,6.70
2020,04,17,05,06,6.70
2020,04,17,05,07,6.70
2020,04,17,05,08,6.70
2020,04,17,05,09,6.70
2020,04,17,05,10,6.70
2020,04,17,05,11,6.70
2020,04,17,05,12,6.70
2020,04,17,05,13,6.70
2020,04,17,05,14,6.70
2020,04,17,05,15,6.70
2020,04,17,05,16,6.70
2020,04,17,05,17,6.70
2020,04,17,05,18,6.70
2020,04,17,05,19,6.70
2020,04,17,05,20,6.60
2020,04,17,05,21,6.60
2020,04,17,05,22,6.60
2020,04,17,05,23,6.60
2020,04,17,05,24,6.50
2020,04,17,05,25,6.60
2020,04,17,05,26,6.60
2020,04,17,05,27,6.70
2020,04,17,05,28,6.70
2020,04,17,05,29,6.70
2020,04,17,05,30,6.70
2020,04,17,05,31,6.70
2020,04,17,05,32,6.70
2020,04,17,05,33,6.70
2020,04,17,05,34,6.70
2020,04,17,05,35,6.60
2020,04,17,05,36,6.60
2020,04,17,05,37,6.60
2020,04,17,05,38,6.60
2020,04,17,05,39,6.60
2020,04,17,05,40,6.60
2020,04,17,05,41,6.60
2020,04,17,05,42,6.50
2020,04,17,05,43,6.50
2020,04,17,05,44,6.40
2020,04,17,05,45,6.40
2020,04,17,05,46,6.40
2020,04,17,05,47,6.40
2020,04,17,05,48,6.40
2020,04,17,05,49,6.30
2020,04,17,05,50,6.30
2020,04,17,05,51,6.30
2020,04,17,05,52,6.30
2020,04,17,05,53,6.30
2020,04,17,05,54,6.30
2020,04,17,05,55,6.30
2020,04,17,05,56,6.30
2020,04,17,05,57,6.30
2020,04,17,05,58,6.30
2020,04,17,05,59,6.30
2020,04,17,06,00,6.30
2020,04,17,06,01,6.30
2020,04,17,06,02,6.30
2020,04,17,06,03,6.30
2020,04,17,06,04,6.30
2020,04,17,06,55,5.90
2020,04,17,06,56,6.00
2020,04,17,06,57,5.90
2020,04,17,06,58,6.00
2020,04,17,06,59,6.00
2020,04,17,07,00,6.00
2020,04,17,07,01,6.00
2020,04,17,07,02,6.10
2020,04,17,07,03,6.10
2020,04,17,07,04,6.10
2020,04,17,07,05,6.20
2020,04,17,07,06,6.20
2020,04,17,07,07,6.20
2020,04,17,07,08,6.20
2020,04,17,07,09,6.20
2020,04,17,07,10,6.30
2020,04,17,07,11,6.20
2020,04,17,07,12,6.30
2020,04,17,07,13,6.30
2020,04,17,07,14,6.30
2020,04,17,07,15,6.30
2020,04,17,07,16,6.30
2020,04,17,07,17,6.30
2020,04,17,07,18,6.30
2020,04,17,07,19,6.30
2020,04,17,07,20,6.30
2020,04,17,07,21,6.40
2020,04,17,07,22,6.40
2020,04,17,07,23,6.40
2020,04,17,07,24,6.40
2020,04,17,07,25,6.50
2020,04,17,07,26,6.50
2020,04,17,07,27,6.50
2020,04,17,07,28,6.60
2020,04,17,07,29,6.60
2020,04,17,07,30,6.60
2020,04,17,07,31,6.60
2020,04,17,07,32,6.70
2020,04,17,07,33,6.70
2020,04,17,07,34,6.70
2020,04,17,07,35,6.70
2020,04,17,07,36,6.70
2020,04,17,07,37,6.70
2020,04,17,07,38,6.80
2020,04,17,07,39,6.80
2020,04,17,07,40,6.80
2020,04,17,07,41,6.80
2020,04,17,07,42,6.80
2020,04,17,07,43,6.80
2020,04,17,07,44,6.90
2020,04,17,07,45,6.90
2020,04,17,07,46,6.90
2020,04,17,07,47,7.00
2020,04,17,07,48,7.00
2020,04,17,07,49,7.00
2020,04,17,07,50,7.10
2020,04,17,07,51,7.10
2020,04,17,07,52,7.10
2020,04,17,07,53,7.20
2020,04,17,07,54,7.20
2020,04,17,07,55,7.20
2020,04,17,07,56,7.30
2020,04,17,07,57,7.30
2020,04,17,07,58,7.30
2020,04,17,07,59,7.40
2020,04,17,08,00,7.40
2020,04,17,08,01,7.40
2020,04,17,08,02,7.50
2020,04,17,08,03,7.60
2020,04,17,08,04,7.60
2020,04,17,08,05,7.70
2020,04,17,08,06,7.80
2020,04,17,08,07,7.90
2020,04,17,08,08,8.00
2020,04,17,08,09,8.10
2020,04,17,08,10,8.20
2020,04,17,08,11,8.40
2020,04,17,08,12,8.40
2020,04,17,08,13,8.40
2020,04,17,08,14,8.50
2020,04,17,08,15,8.50
2020,04,17,08,16,8.60
2020,04,17,08,17,8.60
2020,04,17,08,18,8.60
2020,04,17,08,19,8.60
2020,04,17,08,20,8.60
2020,04,17,08,21,8.70
2020,04,17,08,22,8.70
2020,04,17,08,23,8.80
2020,04,17,08,24,8.80
2020,04,17,08,25,8.90
2020,04,17,08,26,9.00
2020,04,17,08,27,9.10
2020,04,17,08,28,9.20
2020,04,17,08,29,9.20
2020,04,17,08,30,9.30
2020,04,17,08,31,9.30
2020,04,17,08,32,9.30
2020,04,17,08,33,9.40
2020,04,17,08,34,9.40
2020,04,17,08,35,9.40
2020,04,17,08,36,9.50
2020,04,17,08,37,9.60
2020,04,17,08,38,9.70
2020,04,17,08,39,9.70
2020,04,17,08,40,9.80
2020,04,17,08,41,9.80
2020,04,17,08,42,9.90
2020,04,17,08,43,9.90
2020,04,17,08,44,9.90
2020,04,17,08,45,9.90
2020,04,17,08,46,9.90
2020,04,17,08,47,9.90
2020,04,17,08,48,9.90
2020,04,17,08,49,9.90
2020,04,17,08,50,9.90
2020,04,17,08,51,9.90
2020,04,17,08,52,9.90
2020,04,17,08,53,9.90
2020,04,17,08,54,10.00
2020,04,17,08,55,10.10
2020,04,17,08,56,10.20
2020,04,17,08,57,10.20
2020,04,17,08,58,10.20
2020,04,17,08,59,10.30
2020,04,17,09,00,10.30
2020,04,17,09,01,10.30
2020,04,17,09,02,10.30
2020,04,17,09,03,10.30
2020,04,17,09,04,10.30
2020,04,17,09,05,10.30
2020,04,17,09,06,10.30
2020,04,17,09,07,10.30
2020,04,17,09,08,10.30
2020,04,17,09,09,10.30
2020,04,17,09,10,10.20
2020,04,17,09,11,10.20
2020,04,17,09,12,10.20
2020,04,17,09,13,10.20
2020,04,17,09,14,10.20
2020,04,17,09,15,10.20
2020,04,17,09,16,10.20
2020,04,17,09,17,10.20
2020,04,17,09,18,10.20
2020,04,17,09,19,10.30
2020,04,17,09,20,10.30
2020,04,17,09,21,10.30
2020,04,17,09,22,10.30
2020,04,17,09,23,10.30
2020,04,17,09,24,10.30
2020,04,17,09,25,10.30
2020,04,17,09,26,10.30
2020,04,17,09,27,10.30
2020,04,17,09,28,10.30
2020,04,17,09,29,10.30
2020,04,17,09,30,10.40
2020,04,17,09,31,10.40
2020,04,17,09,32,10.40
2020,04,17,09,33,10.40
2020,04,17,09,34,10.40
2020,04,17,09,35,10.40
2020,04,17,09,36,10.40
2020,04,17,09,37,10.40
2020,04,17,09,38,10.40
2020,04,17,09,39,10.40
2020,04,17,09,40,10.40
2020,04,17,09,41,10.40
2020,04,17,09,42,10.40
2020,04,17,09,43,10.40
2020,04,17,09,44,10.40
2020,04,17,09,45,10.40
2020,04,17,09,46,10.40
2020,04,17,09,47,10.40
2020,04,17,09,48,10.30
2020,04,17,09,49,10.30
2020,04,17,09,50,10.30
2020,04,17,09,51,10.20
2020,04,17,09,52,10.20
2020,04,17,09,53,10.20
2020,04,17,09,54,10.20
2020,04,17,09,55,10.20
2020,04,17,09,56,10.20
2020,04,17,09,57,10.10
2020,04,17,09,58,10.10
2020,04,17,09,59,10.10
2020,04,17,10,00,10.10
2020,04,17,10,01,10.10
2020,04,17,10,02,10.10
2020,04,17,10,03,10.00
2020,04,17,10,04,10.00
2020,04,17,10,05,10.00
2020,04,17,10,06,10.00
2020,04,17,10,07,10.00
2020,04,17,10,08,10.00
2020,04,17,10,09,10.10
2020,04,17,10,10,10.10
2020,04,17,10,11,10.10
2020,04,17,10,12,10.10
2020,04,17,10,13,10.10
2020,04,17,10,14,10.20
2020,04,17,10,15,10.20
2020,04,17,10,16,10.20
2020,04,17,10,17,10.20
2020,04,17,10,18,10.20
2020,04,17,10,19,10.20
2020,04,17,10,20,10.20
2020,04,17,10,21,10.20
2020,04,17,10,22,10.20
2020,04,17,10,23,10.20
2020,04,17,10,24,10.20
2020,04,17,10,25,10.30
2020,04,17,10,26,10.30
2020,04,17,10,27,10.30
2020,04,17,10,28,10.40
2020,04,17,10,29,10.40
2020,04,17,10,30,10.40
2020,04,17,10,31,10.40
2020,04,17,10,32,10.40
2020,04,17,10,33,10.40
2020,04,17,10,34,10.40
2020,04,17,10,35,10.40
2020,04,17,10,36,10.40
2020,04,17,10,37,10.40
2020,04,17,10,38,10.50
2020,04,17,10,39,10.50
2020,04,17,10,40,10.50
2020,04,17,10,41,10.50
2020,04,17,10,42,10.50
2020,04,17,10,43,10.60
2020,04,17,10,44,10.60
2020,04,17,10,45,10.60
2020,04,17,10,46,10.60
2020,04,17,10,47,10.60
2020,04,17,10,48,10.60
2020,04,17,10,49,10.60
2020,04,17,10,50,10.60
2020,04,17,10,51,10.60
2020,04,17,10,52,10.60
2020,04,17,10,53,10.50
2020,04,17,10,54,10.50
2020,04,17,10,55,10.50
2020,04,17,10,56,10.40
2020,04,17,10,57,10.40
2020,04,17,10,58,10.40
2020,04,17,10,59,10.40
2020,04,17,11,00,10.50
2020,04,17,11,01,10.50
2020,04,17,11,02,10.60
2020,04,17,11,03,10.60
2020,04,17,11,04,10.60
2020,04,17,11,05,10.60
2020,04,17,11,06,10.60
2020,04,17,11,07,10.60
2020,04,17,11,08,10.60
2020,04,17,11,09,10.70
2020,04,17,11,10,10.70
2020,04,17,11,11,10.70
2020,04,17,11,12,10.70
2020,04,17,11,13,10.80
2020,04,17,11,14,10.80
2020,04,17,11,15,10.80
2020,04,17,11,16,10.80
2020,04,17,11,17,10.90
2020,04,17,11,18,10.90
2020,04,17,11,19,10.90
2020,04,17,11,20,10.90
2020,04,17,11,21,11.00
2020,04,17,11,22,11.00
2020,04,17,11,23,11.00
2020,04,17,11,24,11.00
2020,04,17,11,25,11.10
2020,04,17,11,26,11.10
2020,04,17,11,27,11.20
2020,04,17,11,28,11.20
2020,04,17,11,29,11.20
2020,04,17,11,30,11.20
2020,04,17,11,31,11.20
2020,04,17,11,32,11.20
2020,04,17,11,33,11.30
2020,04,17,11,34,11.30
2020,04,17,11,35,11.30
2020,04,17,11,36,11.30
2020,04,17,11,37,11.30
2020,04,17,11,38,11.30
2020,04,17,11,39,11.30
2020,04,17,11,40,11.30
2020,04,17,11,41,11.30
2020,04,17,11,42,11.30
2020,04,17,11,43,11.30
2020,04,17,11,44,11.30
2020,04,17,11,45,11.30
2020,04,17,11,46,11.30
2020,04,17,11,47,11.30
2020,04,17,11,48,11.30
2020,04,17,11,49,11.30
2020,04,17,11,50,11.20
2020,04,17,11,51,11.20
2020,04,17,11,52,11.20
2020,04,17,11,53,11.20
2020,04,17,11,54,11.10
2020,04,17,11,55,11.10
2020,04,17,11,56,11.10
2020,04,17,11,57,11.10
2020,04,17,11,58,11.10
2020,04,17,11,59,11.10
2020,04,17,12,00,11.10
2020,04,17,12,01,11.10
2020,04,17,12,02,11.00
2020,04,17,12,03,11.00
2020,04,17,12,04,10.90
2020,04,17,12,05,10.90
2020,04,17,12,06,10.80
2020,04,17,12,07,10.80
2020,04,17,12,08,10.70
2020,04,17,12,09,10.70
2020,04,17,12,10,10.70
2020,04,17,12,11,10.60
2020,04,17,12,12,10.60
2020,04,17,12,13,10.60
2020,04,17,12,14,10.50
2020,04,17,12,15,10.50
2020,04,17,12,16,10.50
2020,04,17,12,17,10.40
2020,04,17,12,18,10.40
2020,04,17,12,19,10.40
2020,04,17,12,20,10.40
2020,04,17,12,21,10.40
2020,04,17,12,22,10.40
2020,04,17,12,23,10.40
2020,04,17,12,24,10.40
2020,04,17,12,25,10.30
2020,04,17,12,26,10.30
2020,04,17,12,27,10.30
2020,04,17,12,28,10.30
2020,04,17,12,29,10.20
2020,04,17,12,30,10.20
2020,04,17,12,31,10.20
2020,04,17,12,32,10.10
2020,04,17,12,33,10.10
2020,04,17,12,34,10.10
2020,04,17,12,35,10.10
2020,04,17,12,36,10.10
2020,04,17,12,37,10.10
2020,04,17,12,38,10.10
2020,04,17,12,39,10.10
2020,04,17,12,40,10.00
2020,04,17,12,41,10.00
2020,04,17,12,42,9.90
2020,04,17,12,43,9.80
2020,04,17,12,44,9.80
2020,04,17,12,45,9.80
2020,04,17,12,46,9.80
2020,04,17,12,47,9.70
2020,04,17,12,48,9.70
2020,04,17,12,49,9.70
2020,04,17,12,50,9.80
2020,04,17,12,51,9.80
2020,04,17,12,52,9.80
2020,04,17,12,53,9.70
2020,04,17,12,54,9.70
2020,04,17,12,55,9.70
2020,04,17,12,56,9.80
2020,04,17,12,57,9.80
2020,04,17,12,58,9.80
2020,04,17,12,59,9.80
2020,04,17,13,00,9.80
2020,04,17,13,01,9.90
2020,04,17,13,02,9.90
2020,04,17,13,03,9.90
2020,04,17,13,04,9.90
2020,04,17,13,05,9.90
2020,04,17,13,06,9.90
2020,04,17,13,07,9.90
2020,04,17,13,08,9.90
2020,04,17,13,09,9.90
2020,04,17,13,10,9.90
2020,04,17,13,11,10.00
2020,04,17,13,12,10.00
2020,04,17,13,13,10.00
2020,04,17,13,14,10.10
2020,04,17,13,15,10.10
2020,04,17,13,16,10.10
2020,04,17,13,17,10.10
2020,04,17,13,18,10.10
2020,04,17,13,19,10.20
2020,04,17,13,20,10.20
2020,04,17,13,21,10.20
2020,04,17,13,22,10.30
2020,04,17,13,23,10.30
2020,04,17,13,24,10.30
2020,04,17,13,25,10.40
2020,04,17,13,26,10.40
2020,04,17,13,27,10.50
2020,04,17,13,28,10.50
2020,04,17,13,29,10.60
2020,04,17,13,30,10.60
2020,04,17,13,31,10.70
2020,04,17,13,32,10.80
2020,04,17,13,33,10.80
2020,04,17,13,34,10.90
2020,04,17,13,35,10.90
2020,04,17,13,36,11.00
2020,04,17,13,37,11.00
2020,04,17,13,38,11.10
2020,04,17,13,39,11.10
2020,04,17,13,40,11.10
2020,04,17,13,41,11.10
2020,04,17,13,42,11.10
2020,04,17,13,43,11.10
2020,04,17,13,44,11.10
2020,04,17,13,45,11.10
2020,04,17,13,46,11.10
2020,04,17,13,47,11.10
2020,04,17,13,48,11.00
2020,04,17,13,49,11.00
2020,04,17,13,50,10.90
2020,04,17,13,51,10.90
2020,04,17,13,52,10.90
2020,04,17,13,53,11.00
2020,04,17,13,54,11.00
2020,04,17,13,55,11.00
2020,04,17,13,56,11.00
2020,04,17,13,57,10.90
2020,04,17,13,58,10.90
2020,04,17,13,59,10.90
2020,04,17,14,00,10.90
2020,04,17,14,01,10.90
2020,04,17,14,02,10.80
2020,04,17,14,03,10.80
2020,04,17,14,04,10.80
2020,04,17,14,05,10.80
2020,04,17,14,06,10.80
2020,04,17,14,07,10.70
2020,04,17,14,08,10.70
2020,04,17,14,09,10.70
2020,04,17,14,10,10.70
2020,04,17,14,11,10.60
2020,04,17,14,12,10.60
2020,04,17,14,13,10.60
2020,04,17,14,14,10.60
2020,04,17,14,15,10.60
2020,04,17,14,16,10.50
2020,04,17,14,17,10.50
2020,04,17,14,18,10.50
2020,04,17,14,19,10.50
2020,04,17,14,20,10.60
2020,04,17,14,21,10.60
2020,04,17,14,22,10.60
2020,04,17,14,23,10.60
2020,04,17,14,24,10.60
2020,04,17,14,25,10.60
2020,04,17,14,26,10.60
2020,04,17,14,27,10.50
2020,04,17,14,28,10.50
2020,04,17,14,29,10.60
2020,04,17,14,30,10.60
2020,04,17,14,31,10.60
2020,04,17,14,32,10.60
2020,04,17,14,33,10.60
2020,04,17,14,34,10.60
2020,04,17,14,35,10.60
2020,04,17,14,36,10.60
2020,04,17,14,37,10.60
2020,04,17,14,38,10.60
2020,04,17,14,39,10.70
2020,04,17,14,40,10.70
2020,04,17,14,41,10.70
2020,04,17,14,42,10.70
2020,04,17,14,43,10.70
2020,04,17,14,44,10.70
2020,04,17,14,45,10.80
2020,04,17,14,46,10.80
2020,04,17,14,47,10.80
2020,04,17,14,48,10.80
2020,04,17,14,49,10.90
2020,04,17,14,50,10.90
2020,04,17,14,51,10.90
2020,04,17,14,52,10.90
2020,04,17,14,53,10.90
2020,04,17,14,54,10.90
2020,04,17,14,55,10.90
2020,04,17,14,56,11.00
2020,04,17,14,57,11.00
2020,04,17,14,58,11.00
2020,04,17,14,59,11.00
2020,04,17,15,00,11.10
2020,04,17,15,01,11.10
2020,04,17,15,02,11.10
2020,04,17,15,03,11.10
2020,04,17,15,04,11.10
2020,04,17,15,05,11.10
2020,04,17,15,06,11.10
2020,04,17,15,07,11.10
2020,04,17,15,08,11.10
2020,04,17,15,09,11.10
2020,04,17,15,10,11.10
2020,04,17,15,11,11.10
2020,04,17,15,12,11.00
2020,04,17,15,13,11.00
2020,04,17,15,14,10.90
2020,04,17,15,15,11.00
2020,04,17,15,16,11.00
2020,04,17,15,17,11.00
2020,04,17,15,18,11.00
2020,04,17,15,19,11.10
2020,04,17,15,20,11.10
2020,04,17,15,21,11.20
2020,04,17,15,22,11.20
2020,04,17,15,23,11.20
2020,04,17,15,24,11.30
2020,04,17,15,25,11.30
2020,04,17,15,26,11.40
2020,04,17,15,27,11.40
2020,04,17,15,28,11.50
2020,04,17,15,29,11.60
2020,04,17,15,30,11.60
2020,04,17,15,31,11.70
2020,04,17,15,32,11.70
2020,04,17,15,33,11.70
2020,04,17,15,34,11.70
2020,04,17,15,35,11.70
2020,04,17,15,36,11.70
2020,04,17,15,37,11.70
2020,04,17,15,38,11.70
2020,04,17,15,39,11.70
2020,04,17,15,40,11.60
2020,04,17,15,41,11.60
2020,04,17,15,42,11.60
2020,04,17,15,43,11.60
2020,04,17,15,44,11.60
2020,04,17,15,45,11.60
2020,04,17,15,46,11.60
2020,04,17,15,47,11.60
2020,04,17,15,48,11.60
2020,04,17,15,49,11.60
2020,04,17,15,50,11.60
2020,04,17,15,51,11.60
2020,04,17,15,52,11.50
2020,04,17,15,53,11.50
2020,04,17,15,54,11.40
2020,04,17,15,55,11.40
2020,04,17,15,56,11.30
2020,04,17,15,57,11.20
2020,04,17,15,58,11.10
2020,04,17,15,59,11.10
2020,04,17,16,00,11.00
2020,04,17,16,01,10.90
2020,04,17,16,02,10.90
2020,04,17,16,03,10.80
2020,04,17,16,04,10.80
2020,04,17,16,05,10.80
2020,04,17,16,06,10.80
2020,04,17,16,07,10.80
2020,04,17,16,08,10.80
2020,04,17,16,09,10.80
2020,04,17,16,10,10.80
2020,04,17,16,11,10.80
2020,04,17,16,12,10.80
2020,04,17,16,13,10.80
2020,04,17,16,14,10.80
2020,04,17,16,15,10.80
2020,04,17,16,16,10.90
2020,04,17,16,17,10.90
2020,04,17,16,18,10.90
2020,04,17,16,19,11.00
2020,04,17,16,20,10.90
2020,04,17,16,21,11.00
2020,04,17,16,22,11.10
2020,04,17,16,23,11.10
2020,04,17,16,24,11.10
2020,04,17,16,25,11.10
2020,04,17,16,26,11.10
2020,04,17,16,27,11.10
2020,04,17,16,28,11.10
2020,04,17,16,29,11.10
2020,04,17,16,30,11.10
2020,04,17,16,31,11.10
2020,04,17,16,32,11.10
2020,04,17,16,33,11.10
2020,04,17,16,34,11.20
2020,04,17,16,35,11.20
2020,04,17,16,36,11.20
2020,04,17,16,37,11.30
2020,04,17,16,38,11.30
2020,04,17,16,39,11.30
2020,04,17,16,40,11.40
2020,04,17,16,41,11.40
2020,04,17,16,42,11.40
2020,04,17,16,43,11.40
2020,04,17,16,44,11.50
2020,04,17,16,45,11.50
2020,04,17,16,46,11.50
2020,04,17,16,47,11.50
2020,04,17,16,48,11.60
2020,04,17,16,49,11.60
2020,04,17,16,50,11.60
2020,04,17,16,51,11.60
2020,04,17,16,52,11.60
2020,04,17,16,53,11.60
2020,04,17,16,54,11.70
2020,04,17,16,55,11.70
2020,04,17,16,56,11.70
2020,04,17,16,57,11.70
2020,04,17,16,58,11.70
2020,04,17,16,59,11.70
2020,04,17,17,00,11.80
2020,04,17,17,01,11.80
2020,04,17,17,02,11.80
2020,04,17,17,03,11.80
2020,04,17,17,04,11.80
2020,04,17,17,05,11.80
2020,04,17,17,06,11.90
2020,04,17,17,07,11.90
2020,04,17,17,08,11.90
2020,04,17,17,09,11.90
2020,04,17,17,10,11.90
2020,04,17,17,11,11.90
2020,04,17,17,12,11.90
2020,04,17,17,13,11.90
2020,04,17,17,14,12.00
2020,04,17,17,15,12.00
2020,04,17,17,16,12.10
2020,04,17,17,17,12.10
2020,04,17,17,18,12.10
2020,04,17,17,19,12.10
2020,04,17,17,20,12.10
2020,04,17,17,21,12.20
2020,04,17,17,22,12.20
2020,04,17,17,23,12.20
2020,04,17,17,24,12.20
2020,04,17,17,25,12.30
2020,04,17,17,26,12.30
2020,04,17,17,27,12.30
2020,04,17,17,28,12.30
2020,04,17,17,29,12.40
2020,04,17,17,30,12.50
2020,04,17,17,31,12.50
2020,04,17,17,32,12.50
2020,04,17,17,33,12.50
2020,04,17,17,34,12.60
2020,04,17,17,35,12.70
2020,04,17,17,36,12.70
2020,04,17,17,37,12.70
2020,04,17,17,38,12.70
2020,04,17,17,39,12.70
2020,04,17,17,40,12.70
2020,04,17,17,41,12.70
2020,04,17,17,42,12.70
2020,04,17,17,43,12.80
2020,04,17,17,44,12.80
2020,04,17,17,45,12.80
2020,04,17,17,46,12.80
2020,04,17,17,47,12.80
2020,04,17,17,48,12.90
2020,04,17,17,49,12.90
2020,04,17,17,50,12.90
2020,04,17,17,51,12.90
2020,04,17,17,52,12.90
2020,04,17,17,53,12.90
2020,04,17,17,54,12.90
2020,04,17,17,55,12.90
2020,04,17,17,56,13.00
2020,04,17,17,57,13.00
2020,04,17,17,58,13.00
2020,04,17,17,59,13.10
2020,04,17,18,00,13.10
2020,04,17,18,01,13.10
2020,04,17,18,02,13.10
2020,04,17,18,03,13.20
2020,04,17,18,04,13.20
2020,04,17,18,05,13.20
2020,04,17,18,06,13.10
2020,04,17,18,07,13.10
2020,04,17,18,08,13.10
2020,04,17,18,09,13.10
2020,04,17,18,10,13.10
2020,04,17,18,11,13.00
2020,04,17,18,12,12.90
2020,04,17,18,13,12.90
2020,04,17,18,14,12.90
2020,04,17,18,15,12.80
2020,04,17,18,16,12.80
2020,04,17,18,17,12.80
2020,04,17,18,18,12.80
2020,04,17,18,19,12.80
2020,04,17,18,20,12.80
2020,04,17,18,21,12.80
2020,04,17,18,22,12.80
2020,04,17,18,23,12.90
2020,04,17,18,24,12.90
2020,04,17,18,25,13.00
2020,04,17,18,26,13.00
2020,04,17,18,27,13.10
2020,04,17,18,28,13.10
2020,04,17,18,29,13.10
2020,04,17,18,30,13.10
2020,04,17,18,31,13.10
2020,04,17,18,32,13.10
2020,04,17,18,33,13.20
2020,04,17,18,34,13.20
2020,04,17,18,35,13.20
2020,04,17,18,36,13.20
2020,04,17,18,37,13.30
2020,04,17,18,38,13.30
2020,04,17,18,39,13.30
2020,04,17,18,40,13.30
2020,04,17,18,41,13.30
2020,04,17,18,42,13.40
2020,04,17,18,43,13.40
2020,04,17,18,44,13.40
2020,04,17,18,45,13.40
2020,04,17,18,46,13.40
2020,04,17,18,47,13.40
2020,04,17,18,48,13.40
2020,04,17,18,49,13.40
2020,04,17,18,50,13.40
2020,04,17,18,51,13.40
2020,04,17,18,52,13.40
2020,04,17,18,53,13.50
2020,04,17,18,54,13.50
2020,04,17,18,55,13.50
2020,04,17,18,56,13.40
2020,04,17,18,57,13.40
2020,04,17,18,58,13.40
2020,04,17,18,59,13.30
2020,04,17,19,00,13.20
2020,04,17,19,01,13.20
2020,04,17,19,02,13.10